Location: Unspecified
(0.0000°N, 0.0000°E)
Time: 10:00:49
(UTC+00:00)

A-11 Canister half - All Passes

Search period start: 20 February 2018 00:00
Search period end: 02 March 2018 00:00
Orbit: 1515 x 1685 km, 47.2° (Epoch: 19 February)

Date Brightness Start Highest point End Pass type
(mag) Time Alt. Az. Time Alt. Az. Time Alt. Az.
20 Feb - 06:07:29 10° N 06:13:58 21° NE 06:20:24 10° E daylight
20 Feb - 08:09:34 10° NW 08:18:47 76° SW 08:28:08 10° SE daylight
20 Feb - 10:20:04 10° WSW 10:24:02 13° SW 10:28:02 10° SSW daylight
20 Feb - 18:55:29 10° SSW 19:05:13 50° SE 19:14:51 10° ENE visible
20 Feb - 21:01:01 10° WSW 21:10:06 37° NW 21:19:05 10° NNE visible
21 Feb - 05:45:00 10° N 05:51:01 19° NE 05:56:59 10° E visible
21 Feb - 07:46:39 10° NW 07:55:54 82° SW 08:05:15 10° SE daylight
21 Feb - 09:56:19 10° WSW 10:01:02 15° SW 10:05:50 10° SSW daylight
21 Feb - 18:32:41 10° SSW 18:42:16 46° SE 18:51:45 10° ENE visible
21 Feb - 20:37:51 10° WSW 20:47:09 41° NW 20:56:21 10° NNE visible
22 Feb - 05:22:34 10° N 05:28:03 17° NE 05:33:30 10° E visible
22 Feb - 07:23:45 10° NW 07:33:00 89° SW 07:42:22 10° SE daylight
22 Feb - 09:32:43 10° W 09:38:04 17° SW 09:43:29 10° S daylight
22 Feb - 18:09:55 10° SSW 18:19:19 42° SE 18:28:39 10° ENE daylight
22 Feb - 20:14:43 10° WSW 20:24:12 44° NW 20:33:35 10° NNE visible
23 Feb - 05:00:14 10° NNE 05:05:05 15° NE 05:09:54 10° ENE visible
23 Feb - 07:00:52 10° NW 07:10:08 85° NE 07:19:27 10° SE daylight
23 Feb - 09:09:13 10° W 09:15:05 18° SW 09:21:04 10° S daylight
23 Feb - 17:47:10 10° SSW 17:56:21 39° SE 18:05:30 10° ENE daylight
23 Feb - 19:51:37 10° WSW 20:01:15 48° NW 20:10:49 10° NNE visible
24 Feb - 04:38:01 10° NNE 04:42:07 13° NE 04:46:10 10° ENE visible
24 Feb - 06:38:00 10° NW 06:47:15 78° NE 06:56:32 10° SE daylight
24 Feb - 08:45:48 10° W 08:52:08 20° SW 08:58:35 10° S daylight
24 Feb - 17:24:25 10° SSW 17:33:24 36° SE 17:42:20 10° ENE daylight
24 Feb - 19:28:32 10° SW 19:38:18 53° NW 19:48:02 10° NNE visible
25 Feb - 04:16:02 10° NNE 04:19:07 12° NE 04:22:11 10° ENE visible
25 Feb - 06:15:09 10° NNW 06:24:22 72° NE 06:33:36 10° SE daylight
25 Feb - 08:22:27 10° W 08:29:11 22° SW 08:36:01 10° S daylight
25 Feb - 17:01:43 10° S 17:10:26 33° SE 17:19:08 10° ENE daylight
25 Feb - 19:05:28 10° SW 19:15:21 57° NW 19:25:13 10° NNE visible
26 Feb - 03:54:43 10° NE 03:56:07 10° NE 03:57:31 10° NE visible
26 Feb - 05:52:18 10° NNW 06:01:29 66° NE 06:10:38 10° SE daylight
26 Feb - 07:59:09 10° W 08:06:15 25° SW 08:13:27 10° S daylight
26 Feb - 16:39:02 10° S 16:47:28 30° SE 16:55:53 10° ENE daylight
26 Feb - 18:42:26 10° SW 18:52:25 62° NW 19:02:23 10° NNE visible
26 Feb - 20:56:12 10° NW 20:58:03 11° NW 20:59:56 10° NNW visible
27 Feb - 05:29:29 10° NNW 05:38:35 60° NE 05:47:40 10° SE visible
27 Feb - 07:35:54 10° WNW 07:43:18 27° SW 07:50:50 10° S daylight
27 Feb - 16:16:23 10° S 16:24:30 27° SE 16:32:35 10° ENE daylight
27 Feb - 18:19:25 10° SW 18:29:28 67° NW 18:39:31 10° NNE visible
27 Feb - 20:31:30 10° WNW 20:35:01 12° NW 20:38:32 10° NNW visible
28 Feb - 05:06:40 10° NNW 05:15:42 55° NE 05:24:40 10° SE visible
28 Feb - 07:12:41 10° WNW 07:20:24 30° SW 07:28:11 10° S daylight
28 Feb - 15:53:47 10° S 16:01:31 25° SE 16:09:16 10° E daylight
28 Feb - 17:56:27 10° SW 18:06:32 73° NW 18:16:39 10° NNE daylight
28 Feb - 20:07:26 10° WNW 20:11:59 14° NW 20:16:32 10° NNW visible
01 Mar - 04:43:53 10° NNW 04:52:49 51° NE 05:01:39 10° ESE visible
01 Mar - 06:49:30 10° WNW 06:57:29 33° SW 07:05:31 10° SSE daylight
01 Mar - 15:31:12 10° S 15:38:32 22° SE 15:45:53 10° E daylight
01 Mar - 17:33:28 10° SW 17:43:36 79° NW 17:53:45 10° NE daylight
01 Mar - 19:43:36 10° WNW 19:48:58 15° NW 19:54:19 10° NNW visible
